sat.trackr.live / text

‹ back to catalog

STARLINK-5294

NORAD 54159 · 2022-141C

PAYLOAD ACTIVE UNKNOWN

§ Identity

Operator
Country
US
Launch date
2022-10-28
Launch site
AFWTR
Launch vehicle
Mass (kg)
RCS (m²)

Purposes: comms

External: N2YO · Heavens-Above · Gunter

§ Orbital elements

Epoch: 2026-05-25T02:46:38.526816Z

Period
95.44 min
Inclination
53.2143°
Eccentricity
0.0001446
Mean motion
15.08833451 rev/d
Perigee alt
538.8 km
Apogee alt
540.8 km
Semi-major
6,917.9 km
B*
6.0647e-6
RAAN
31.1322°
Arg perigee
74.4495°
Mean anomaly
285.6656°
Rev number
19,725

§ Raw data

STARLINK-52941 54159U 22141C   26145.11572369 -.00000191  00000+0  60647-5 0  99952 54159  53.2143  31.1322 0001446  74.4495 285.6656 15.08833451197254

JSON: /api/v1/satellites/54159 · /tle

For live sub-satellite position, see the globe view (requires WebGL).

§ Visibility from observer

Set your observer location to see the next 7 days of passes ≥ 10°. The values pass through the URL so the page stays shareable.

No JS? Fill the form by hand. The geolocation button needs JavaScript.